Wind_Speed
39 40 40 41 42 43 44 46 45 44 44 45 46 48 49 48 46 45 44 42 39 36 34 33 32 29 27 26 25 24 25 25 26 27 28 28 28 29 30 30 31 31 32
38 39 39 39 40 41 41 41 40 39 39 40 40 41 42 41 40 40 40 39 37 36 33 31 30 28 26 25 25 25 25 26 27 28 29 29 30 31 33 34 34 34 35
37 37 37 37 37 37 36 35 34 34 34 34 35 34 34 35 35 35 34 35 35 34 31 30 29 28 26 25 25 25 25 26 27 28 29 31 32 33 34 35 36 37 38
36 36 35 34 33 32 31 30 29 29 28 28 27 27 27 29 30 30 30 31 32 32 32 30 28 27 25 23 24 24 25 25 26 28 29 31 33 34 36 37 38 39 40
34 34 33 32 30 29 27 25 25 24 23 22 21 21 23 24 24 25 25 26 27 28 28 27 24 22 21 21 22 22 23 24 26 28 30 32 34 35 37 38 40 40 41
31 31 30 29 27 25 24 23 22 20 19 19 18 17 19 20 20 21 22 22 23 22 21 21 19 19 19 19 20 21 22 24 26 28 30 32 34 36 37 39 40 41 42
30 29 28 27 25 22 21 20 18 17 16 15 14 14 15 16 17 17 18 17 16 16 15 15 14 15 15 17 18 19 21 23 25 27 30 32 34 35 37 38 40 41 42
29 27 26 25 23 21 19 17 15 14 13 12 11 10 11 12 12 13 12 12 12 12 12 12 12 12 13 14 16 18 20 22 24 26 28 31 33 34 36 37 37 38 39
29 26 24 23 22 20 17 15 13 13 12 12 11 9 9 9 9 9 9 10 10 10 10 10 10 11 11 12 14 16 18 20 23 25 28 30 31 33 34 35 35 36 36
28 26 23 22 20 18 16 14 13 12 11 10 9 8 8 7 7 8 9 9 8 8 8 8 8 9 9 10 12 15 17 19 22 24 26 28 30 31 32 32 32 33 33
27 25 23 21 19 17 15 14 13 12 11 10 8 8 7 7 6 7 7 7 7 7 7 7 7 7 8 10 12 14 17 19 21 23 26 28 29 30 30 29 29 29 29
27 25 23 21 19 17 16 15 14 12 11 10 8 7 7 7 7 7 7 7 7 7 6 6 6 7 9 10 12 14 17 19 21 24 26 28 29 29 29 28 27 27 27
27 25 23 21 19 18 16 15 14 12 11 10 9 8 7 7 7 7 7 6 6 6 6 6 6 7 9 10 12 15 17 20 22 25 27 28 29 29 28 27 26 25 25
28 26 24 22 21 19 17 16 15 14 13 12 10 9 8 7 8 7 7 7 7 7 7 7 7 8 9 11 13 15 17 20 22 25 27 28 29 29 28 27 25 25 24
28 27 25 23 22 20 19 17 16 15 13 12 11 10 10 10 9 9 8 9 9 9 8 8 9 10 11 12 13 15 17 20 22 25 27 28 30 30 29 27 25 24 23
28 27 26 25 23 21 20 19 17 16 15 13 13 12 11 11 11 10 10 11 11 10 10 10 10 11 12 13 14 16 18 20 23 25 27 28 30 30 29 27 25 24 23
29 28 27 26 25 23 21 20 19 18 17 15 14 14 13 13 12 12 12 13 12 12 12 12 12 13 13 14 15 16 18 20 23 25 27 28 29 30 29 28 26 25 23
30 29 28 26 26 25 23 21 20 19 18 17 16 16 15 15 15 14 15 14 14 14 14 14 14 14 15 15 16 17 19 21 23 25 26 28 29 30 30 28 26 25 23
31 29 28 27 26 26 24 23 22 21 19 18 17 17 16 16 16 16 16 16 16 16 16 16 16 16 16 17 17 18 20 21 23 25 27 28 29 30 30 29 27 25 24
31 31 29 28 26 26 25 24 23 22 21 20 19 19 18 18 18 18 18 18 18 18 18 17 17 17 18 18 19 20 21 22 24 25 27 28 29 30 30 29 28 27 25
32 31 30 29 27 26 25 24 23 23 22 21 21 20 20 20 19 19 19 20 20 20 20 20 20 19 19 20 21 21 22 23 24 26 27 28 30 31 31 30 29 28 27
32 31 30 29 27 25 24 24 24 23 23 23 22 22 22 22 21 21 21 21 22 22 21 21 21 21 21 21 22 22 23 24 25 27 28 29 30 31 31 31 30 29 28
33 31 31 29 28 26 25 24 23 22 22 21 21 21 21 22 22 22 22 22 23 23 23 22 22 23 22 22 22 23 24 25 26 27 28 29 30 31 31 31 31 30 30
35 33 32 31 28 26 25 24 23 22 21 20 19 18 19 21 22 22 22 22 23 23 23 23 23 23 23 24 23 23 24 26 27 27 28 30 31 32 32 32 32 31 31
36 33 32 30 27 25 24 22 21 20 19 18 17 16 16 18 20 21 22 22 22 22 22 23 23 23 24 24 24 24 25 26 27 28 29 30 31 32 33 33 32 32 32
35 33 32 29 26 24 22 20 19 18 17 16 16 15 15 15 16 18 20 21 22 21 21 21 22 22 23 23 23 24 25 26 28 29 30 31 31 32 33 33 33 33 33
Wind_Direction
287 287 288 289 289 288 287 286 285 282 279 275 272 269 269 269 268 268 267 266 262 261 258 255 253 251 248 251 253 255 258 261 265 268 271 274 276 279 280 280 280 281 281
289 290 291 292 292 292 291 290 287 284 281 278 273 271 268 267 267 266 265 259 256 256 255 254 251 249 250 253 254 256 260 264 267 270 273 276 277 279 280 281 281 281 281
291 293 294 295 296 296 295 293 290 287 284 279 276 271 267 265 265 261 260 255 254 253 251 248 248 251 251 253 257 259 263 266 268 271 274 277 278 280 280 281 281 281 280
293 295 296 297 299 300 299 298 296 293 290 281 275 268 265 263 258 258 254 251 248 246 244 244 245 248 250 254 259 262 265 269 272 275 278 279 280 281 281 281 281 280 279
294 296 297 299 301 304 303 303 303 298 291 284 278 266 260 258 255 252 249 247 243 241 238 237 240 244 249 254 259 265 269 273 277 279 281 282 282 283 283 283 282 281 279
296 296 297 299 302 305 305 306 309 303 292 287 280 265 257 256 254 248 247 245 238 236 234 232 235 242 251 258 264 269 273 277 280 282 284 285 286 286 286 285 284 282 280
295 296 296 299 302 304 305 307 308 305 298 288 277 268 266 260 252 247 241 236 234 237 239 237 239 247 257 264 270 276 280 283 286 288 289 291 291 291 290 289 287 285 282
294 295 294 296 299 300 302 305 304 302 299 295 290 279 261 247 240 241 239 237 238 237 237 239 245 254 263 269 276 281 285 288 291 293 295 296 296 296 294 292 290 287 284
291 291 291 293 296 296 296 296 299 301 297 293 290 283 271 257 249 245 238 236 234 231 234 240 249 258 266 275 281 287 292 296 299 301 302 303 303 302 299 297 294 290 286
288 288 287 288 291 291 290 289 290 293 293 291 287 277 266 257 251 245 234 227 223 226 232 240 249 260 270 282 291 298 303 307 309 310 311 311 311 309 305 302 298 294 289
283 282 281 282 282 283 281 280 284 287 287 285 284 278 267 257 245 237 232 226 225 229 235 242 253 268 282 295 304 310 314 316 319 320 320 320 320 316 312 307 303 299 294
278 276 275 273 273 273 272 273 276 279 280 279 277 274 266 260 251 242 237 236 237 235 239 250 268 285 298 307 313 318 322 326 328 329 329 328 327 323 318 313 308 304 299
272 271 270 267 265 265 266 267 268 269 271 272 270 268 264 259 252 245 244 244 240 240 250 264 281 294 303 311 319 326 331 334 336 335 334 333 331 329 324 319 314 309 304
268 265 264 261 259 260 261 261 261 261 261 262 264 261 258 256 250 249 247 244 245 251 260 272 286 298 307 317 324 331 335 338 339 339 338 337 335 333 329 324 318 312 308
263 260 258 257 254 254 254 255 254 253 253 253 254 254 253 251 249 248 248 248 252 258 264 275 288 299 308 316 323 331 336 339 340 340 340 339 338 336 332 327 323 317 312
259 257 254 253 250 249 249 248 248 248 250 252 251 250 249 250 250 250 251 253 257 263 268 277 287 295 304 311 320 328 335 338 340 340 339 339 338 337 335 331 326 323 318
256 254 251 248 247 246 246 244 244 245 247 248 248 247 248 249 250 252 254 257 261 265 269 275 283 291 300 309 317 325 330 334 336 338 339 339 338 337 336 333 329 325 322
251 251 248 245 243 242 241 241 242 242 244 246 247 248 248 249 251 253 256 260 262 265 268 273 279 287 296 304 313 320 324 328 332 335 336 337 338 338 338 336 333 329 324
243 245 244 242 240 238 238 238 239 240 242 244 245 247 248 249 252 255 258 261 263 266 269 273 279 285 291 298 306 313 318 321 326 330 332 334 336 338 339 339 336 333 328
239 238 238 239 237 236 236 236 237 239 241 242 244 247 248 251 254 257 260 263 265 268 270 273 278 283 288 294 300 307 312 316 321 325 329 331 333 335 337 337 338 336 332
237 233 233 234 234 233 233 234 236 238 240 242 244 247 250 252 256 260 263 265 266 268 270 272 276 281 285 290 296 302 307 312 316 320 325 328 331 333 334 335 335 335 334
230 227 227 229 229 228 229 232 236 240 243 244 245 246 251 255 257 260 262 264 266 268 270 272 275 279 282 287 291 298 303 308 312 316 320 324 328 330 332 333 333 333 332
225 220 220 224 226 226 227 230 235 242 246 248 248 246 248 253 256 260 261 263 265 267 268 270 273 277 281 286 290 295 300 306 310 314 317 321 324 327 329 330 330 331 330
219 216 216 220 224 224 227 230 235 240 243 246 249 247 247 253 258 261 263 264 265 265 266 269 271 275 279 285 289 292 297 302 306 310 314 317 320 323 325 326 327 328 329
214 214 213 215 220 222 224 228 231 234 238 244 250 253 252 255 261 265 266 267 268 266 266 268 270 273 276 282 288 292 294 298 304 308 311 315 318 320 322 323 324 325 326
211 209 208 211 214 218 221 222 225 231 236 244 251 257 262 264 264 266 269 270 270 269 268 270 271 272 275 280 287 292 295 298 302 307 310 314 316 317 318 319 320 321 322
Height
5767 5764 5760 5757 5752 5748 5744 5740 5737 5733 5730 5729 5730 5730 5731 5733 5736 5737 5738 5740 5741 5743 5744 5746 5748 5749 5751 5754 5757 5759 5761 5762 5763 5764 5765 5766 5766 5766 5766 5766 5766 5766 5766
5758 5754 5750 5746 5742 5737 5733 5729 5725 5722 5719 5717 5717 5718 5720 5721 5724 5725 5727 5729 5731 5733 5735 5738 5740 5742 5744 5747 5749 5752 5754 5755 5756 5757 5757 5758 5758 5758 5757 5757 5757 5756 5756
5748 5745 5741 5737 5733 5728 5723 5719 5715 5712 5709 5707 5707 5708 5709 5711 5713 5715 5716 5719 5722 5725 5727 5730 5733 5735 5737 5740 5742 5744 5746 5747 5748 5749 5749 5749 5749 5749 5748 5747 5746 5745 5745
5740 5736 5733 5729 5724 5720 5715 5711 5707 5704 5701 5699 5699 5700 5701 5703 5705 5707 5708 5710 5713 5716 5719 5722 5725 5728 5731 5733 5735 5737 5738 5739 5740 5740 5741 5740 5740 5739 5738 5737 5735 5734 5733
5732 5729 5725 5721 5717 5713 5709 5705 5701 5698 5695 5693 5693 5693 5695 5697 5698 5700 5703 5704 5707 5709 5712 5715 5718 5722 5725 5727 5729 5730 5731 5732 5732 5732 5732 5731 5730 5729 5727 5725 5724 5722 5720
5724 5721 5718 5715 5711 5707 5703 5700 5696 5693 5691 5690 5689 5690 5691 5692 5694 5695 5698 5700 5701 5704 5706 5709 5712 5716 5719 5721 5722 5723 5724 5725 5724 5724 5723 5722 5720 5718 5716 5714 5712 5710 5708
5717 5715 5712 5709 5706 5702 5699 5696 5693 5691 5689 5687 5687 5687 5687 5688 5690 5692 5693 5695 5697 5700 5702 5705 5708 5711 5713 5715 5716 5717 5717 5717 5716 5716 5714 5712 5710 5708 5705 5702 5700 5697 5695
5710 5708 5706 5703 5701 5698 5695 5693 5691 5689 5687 5686 5685 5685 5685 5686 5687 5689 5690 5692 5694 5696 5699 5701 5704 5706 5708 5710 5710 5711 5711 5710 5709 5707 5706 5703 5700 5697 5694 5691 5688 5685 5681
5703 5701 5699 5698 5696 5694 5691 5689 5688 5687 5685 5685 5684 5684 5684 5684 5685 5686 5688 5690 5692 5694 5696 5698 5700 5702 5704 5705 5705 5705 5705 5704 5702 5700 5697 5694 5691 5687 5683 5679 5676 5673 5670
5696 5695 5693 5692 5690 5689 5688 5686 5685 5684 5683 5682 5682 5682 5682 5683 5683 5685 5686 5688 5689 5691 5693 5695 5697 5699 5700 5700 5700 5700 5698 5697 5695 5692 5689 5686 5682 5677 5673 5669 5665 5662 5659
5689 5688 5687 5686 5685 5684 5683 5683 5682 5682 5681 5680 5680 5680 5681 5681 5682 5683 5685 5686 5688 5689 5691 5693 5694 5695 5696 5696 5695 5694 5693 5691 5688 5685 5682 5677 5673 5668 5664 5660 5656 5652 5649
5682 5681 5680 5680 5679 5679 5679 5679 5679 5679 5678 5678 5678 5679 5679 5680 5681 5682 5683 5685 5686 5688 5689 5690 5691 5691 5691 5691 5690 5689 5687 5685 5682 5678 5674 5670 5666 5661 5657 5652 5648 5645 5641
5674 5673 5673 5673 5673 5674 5674 5675 5675 5675 5675 5676 5676 5677 5678 5678 5679 5681 5682 5683 5684 5685 5686 5687 5688 5688 5688 5687 5686 5684 5682 5679 5676 5672 5669 5664 5660 5655 5650 5646 5642 5638 5635
5665 5665 5666 5666 5667 5668 5669 5670 5670 5671 5672 5673 5674 5674 5675 5676 5677 5679 5680 5681 5682 5683 5684 5685 5685 5685 5684 5683 5682 5680 5678 5674 5671 5668 5663 5659 5654 5650 5645 5640 5636 5632 5629
5656 5657 5658 5659 5660 5661 5663 5664 5666 5667 5668 5669 5670 5672 5673 5674 5675 5676 5677 5679 5680 5681 5681 5682 5682 5681 5680 5679 5678 5676 5673 5670 5667 5663 5659 5654 5650 5645 5640 5636 5631 5627 5624
5646 5648 5649 5651 5653 5654 5656 5659 5660 5662 5663 5665 5666 5668 5669 5671 5672 5673 5674 5675 5676 5677 5678 5678 5678 5678 5677 5676 5674 5672 5669 5666 5663 5659 5655 5651 5646 5641 5636 5631 5627 5623 5619
5636 5638 5640 5643 5645 5647 5649 5652 5654 5656 5658 5660 5662 5664 5665 5667 5668 5669 5670 5671 5672 5673 5673 5674 5674 5674 5673 5671 5670 5668 5665 5662 5659 5656 5652 5647 5642 5637 5632 5627 5622 5618 5614
5624 5627 5630 5634 5637 5640 5642 5645 5648 5650 5652 5655 5657 5659 5661 5662 5664 5665 5666 5667 5668 5668 5669 5669 5669 5669 5668 5667 5665 5663 5661 5658 5655 5652 5648 5644 5639 5634 5629 5623 5618 5614 5610
5612 5617 5621 5625 5628 5631 5635 5638 5641 5644 5646 5649 5651 5653 5655 5657 5659 5660 5661 5662 5663 5663 5664 5664 5664 5664 5663 5662 5661 5659 5657 5654 5651 5648 5644 5640 5635 5630 5625 5620 5615 5610 5606
5601 5606 5611 5615 5619 5623 5627 5631 5634 5637 5640 5643 5645 5648 5650 5652 5653 5654 5656 5657 5657 5658 5658 5659 5659 5659 5658 5657 5656 5655 5652 5650 5647 5644 5640 5636 5631 5626 5621 5616 5611 5606 5602
5590 5596 5602 5606 5611 5615 5619 5623 5627 5630 5633 5636 5639 5641 5643 5645 5647 5649 5650 5651 5651 5652 5653 5653 5653 5653 5653 5652 5651 5649 5647 5645 5642 5639 5635 5631 5626 5621 5616 5611 5607 5602 5598
5579 5585 5592 5598 5603 5608 5612 5616 5620 5623 5626 5629 5632 5635 5636 5638 5640 5642 5643 5644 5645 5646 5646 5647 5647 5647 5647 5646 5645 5643 5641 5639 5636 5633 5629 5626 5621 5617 5612 5607 5602 5597 5593
5569 5576 5583 5590 5596 5601 5605 5609 5613 5616 5619 5622 5625 5628 5630 5632 5633 5635 5636 5637 5638 5639 5640 5640 5640 5640 5640 5640 5639 5637 5635 5632 5630 5627 5623 5620 5616 5611 5607 5602 5597 5593 5589
5561 5568 5575 5582 5588 5593 5598 5602 5606 5610 5613 5615 5618 5621 5623 5625 5626 5628 5629 5630 5631 5632 5632 5633 5633 5633 5633 5632 5632 5630 5628 5626 5623 5621 5617 5614 5610 5605 5601 5597 5592 5587 5583
5552 5560 5567 5574 5581 5587 5592 5596 5600 5604 5607 5610 5612 5614 5617 5619 5619 5620 5621 5622 5623 5624 5625 5626 5626 5626 5626 5625 5624 5623 5621 5619 5616 5614 5611 5607 5603 5599 5595 5590 5586 5582 5577
5546 5554 5561 5568 5575 5581 5586 5591 5595 5599 5602 5605 5607 5609 5611 5612 5613 5614 5614 5615 5615 5616 5617 5618 5618 5619 5619 5618 5617 5616 5614 5612 5610 5607 5604 5600 5597 5593 5588 5584 5579 5575 5571